Time,TemperatureF,DewpointF,PressureIn,WindDirection,WindDirectionDegrees,WindSpeedMPH,WindSpeedGustMPH,Humidity,HourlyPrecipIn,Conditions,Clouds,dailyrainin,SolarRadiationWatts/m^2,SoftwareType,DateUTC
2013-11-01 00:02:00,40.2,32.0,31.76,WSW,245,0.0,4.0,73,0.00,,,0.00,0,weatherlink.com 1.10,2013-11-01 06:02:00,
2013-11-01 00:17:00,38.6,33.0,31.76,SSW,199,5.0,6.0,80,0.01,,,0.01,0,weatherlink.com 1.10,2013-11-01 06:17:00,
2013-11-01 00:32:00,38.3,33.0,31.77,SSW,207,0.0,4.0,80,0.01,,,0.01,0,weatherlink.com 1.10,2013-11-01 06:32:00,
2013-11-01 00:47:00,38.1,33.0,31.77,South,180,7.0,7.0,82,0.01,,,0.01,0,weatherlink.com 1.10,2013-11-01 06:47:00,
2013-11-01 01:02:00,38.8,33.0,31.77,SE,140,6.0,10.0,79,0.01,,,0.01,0,weatherlink.com 1.10,2013-11-01 07:02:00,
2013-11-01 01:17:00,39.3,33.0,31.76,SE,128,6.0,14.0,78,0.00,,,0.01,0,weatherlink.com 1.10,2013-11-01 07:17:00,
2013-11-01 01:32:00,38.9,33.0,31.77,SE,142,4.0,7.0,79,0.00,,,0.01,0,weatherlink.com 1.10,2013-11-01 07:32:00,
2013-11-01 01:47:00,38.8,33.0,31.78,South,180,0.0,7.0,79,0.00,,,0.01,0,weatherlink.com 1.10,2013-11-01 07:47:00,
2013-11-01 02:02:00,38.2,33.0,31.78,SSE,151,9.0,10.0,81,0.00,,,0.01,0,weatherlink.com 1.10,2013-11-01 08:02:00,
2013-11-01 02:17:00,38.9,33.0,31.78,SSE,153,7.0,9.0,78,0.00,,,0.01,0,weatherlink.com 1.10,2013-11-01 08:17:00,
2013-11-01 02:32:00,39.0,33.0,31.79,SSE,148,4.0,11.0,79,0.00,,,0.01,0,weatherlink.com 1.10,2013-11-01 08:32:00,
2013-11-01 02:47:00,38.0,33.0,31.80,South,172,6.0,6.0,82,0.00,,,0.01,0,weatherlink.com 1.10,2013-11-01 08:47:00,
2013-11-01 03:02:00,37.6,33.0,31.80,SSE,154,2.0,12.0,84,0.02,,,0.03,0,weatherlink.com 1.10,2013-11-01 09:02:00,
2013-11-01 03:17:00,38.0,34.0,31.80,South,178,6.0,7.0,84,0.02,,,0.03,0,weatherlink.com 1.10,2013-11-01 09:17:00,
2013-11-01 03:32:00,39.3,33.0,31.80,South,180,0.0,10.0,78,0.02,,,0.03,0,weatherlink.com 1.10,2013-11-01 09:32:00,
2013-11-01 03:47:00,37.4,33.0,31.80,East,100,7.0,7.0,85,0.02,,,0.03,0,weatherlink.com 1.10,2013-11-01 09:47:00,
2013-11-01 04:02:00,37.2,33.0,31.80,South,173,1.0,6.0,86,0.00,,,0.03,0,weatherlink.com 1.10,2013-11-01 10:02:00,
2013-11-01 04:17:00,37.0,33.0,31.80,SSE,153,1.0,3.0,86,0.00,,,0.03,0,weatherlink.com 1.10,2013-11-01 10:17:00,
2013-11-01 04:32:00,37.0,34.0,31.80,SSE,150,11.0,14.0,88,0.00,,,0.03,0,weatherlink.com 1.10,2013-11-01 10:32:00,
2013-11-01 04:47:00,37.6,34.0,31.81,SSE,150,10.0,20.0,87,0.01,,,0.04,0,weatherlink.com 1.10,2013-11-01 10:47:00,
2013-11-01 05:02:00,37.3,34.0,31.80,SSE,153,10.0,12.0,86,0.02,,,0.05,0,weatherlink.com 1.10,2013-11-01 11:02:00,
2013-11-01 05:17:00,37.4,34.0,31.80,SSE,161,6.0,13.0,86,0.02,,,0.05,0,weatherlink.com 1.10,2013-11-01 11:17:00,
2013-11-01 05:32:00,37.3,34.0,31.80,South,175,9.0,12.0,86,0.02,,,0.05,0,weatherlink.com 1.10,2013-11-01 11:32:00,
2013-11-01 05:47:00,37.3,34.0,31.81,SSE,149,10.0,12.0,87,0.01,,,0.05,0,weatherlink.com 1.10,2013-11-01 11:47:00,
2013-11-01 06:02:00,37.8,34.0,31.81,South,174,5.0,12.0,85,0.00,,,0.05,0,weatherlink.com 1.10,2013-11-01 12:02:00,
2013-11-01 06:17:00,38.4,33.0,31.82,SSW,206,6.0,11.0,82,0.00,,,0.05,0,weatherlink.com 1.10,2013-11-01 12:17:00,
2013-11-01 06:32:00,36.9,33.0,31.82,East,98,3.0,14.0,87,0.00,,,0.05,0,weatherlink.com 1.10,2013-11-01 12:32:00,
2013-11-01 06:47:00,37.7,33.0,31.82,SSW,209,7.0,8.0,84,0.00,,,0.05,0,weatherlink.com 1.10,2013-11-01 12:47:00,
2013-11-01 07:02:00,37.0,33.0,31.82,SSE,165,0.0,7.0,86,0.00,,,0.05,0,weatherlink.com 1.10,2013-11-01 13:02:00,
2013-11-01 07:17:00,36.8,33.0,31.83,SSW,202,4.0,5.0,86,0.00,,,0.05,0,weatherlink.com 1.10,2013-11-01 13:17:00,
2013-11-01 07:32:00,36.4,33.0,31.82,SE,144,3.0,4.0,87,0.00,,,0.05,0,weatherlink.com 1.10,2013-11-01 13:32:00,
2013-11-01 07:48:00,38.7,33.0,31.82,SSE,156,3.0,4.0,79,0.00,,,0.05,0,weatherlink.com 1.10,2013-11-01 13:48:00,
2013-11-01 08:03:00,38.8,33.0,31.82,SSE,154,3.0,4.0,80,0.00,,,0.05,0,weatherlink.com 1.10,2013-11-01 14:03:00,
2013-11-01 08:18:00,37.8,32.0,31.83,SSE,147,4.0,7.0,81,0.00,,,0.05,0,weatherlink.com 1.10,2013-11-01 14:18:00,
2013-11-01 08:33:00,37.9,32.0,31.83,SSE,147,3.0,3.0,80,0.00,,,0.05,5,weatherlink.com 1.10,2013-11-01 14:33:00,
2013-11-01 08:48:00,38.4,33.0,31.84,South,188,2.0,6.0,80,0.00,,,0.05,12,weatherlink.com 1.10,2013-11-01 14:48:00,
2013-11-01 09:03:00,37.5,33.0,31.84,South,190,0.0,3.0,84,0.00,,,0.05,21,weatherlink.com 1.10,2013-11-01 15:03:00,
2013-11-01 09:18:00,37.6,33.0,31.84,South,190,0.0,2.0,83,0.00,,,0.05,37,weatherlink.com 1.10,2013-11-01 15:18:00,
2013-11-01 09:33:00,38.2,34.0,31.86,South,190,0.0,4.0,84,0.00,,,0.05,49,weatherlink.com 1.10,2013-11-01 15:33:00,
2013-11-01 09:48:00,38.3,33.0,31.85,South,169,2.0,4.0,81,0.00,,,0.05,76,weatherlink.com 1.10,2013-11-01 15:48:00,
2013-11-01 10:03:00,40.9,32.0,31.85,SE,138,0.0,3.0,71,0.00,,,0.05,95,weatherlink.com 1.10,2013-11-01 16:03:00,
2013-11-01 10:18:00,39.8,34.0,31.86,SSE,159,1.0,5.0,80,0.00,,,0.05,79,weatherlink.com 1.10,2013-11-01 16:18:00,
2013-11-01 10:33:00,39.3,35.0,31.86,SSE,165,0.0,4.0,85,0.00,,,0.05,105,weatherlink.com 1.10,2013-11-01 16:33:00,
2013-11-01 10:48:00,39.6,35.0,31.86,South,184,0.0,6.0,83,0.00,,,0.05,128,weatherlink.com 1.10,2013-11-01 16:48:00,
2013-11-01 11:03:00,41.8,36.0,31.85,South,185,0.0,3.0,81,0.00,,,0.05,396,weatherlink.com 1.10,2013-11-01 17:03:00,
2013-11-01 11:18:00,43.6,34.0,31.84,South,180,0.0,4.0,70,0.00,,,0.05,454,weatherlink.com 1.10,2013-11-01 17:18:00,
2013-11-01 11:33:00,43.5,38.0,31.84,WNW,293,1.0,8.0,80,0.00,,,0.05,473,weatherlink.com 1.10,2013-11-01 17:33:00,
2013-11-01 11:48:00,42.9,36.0,31.84,South,188,0.0,4.0,76,0.00,,,0.05,214,weatherlink.com 1.10,2013-11-01 17:48:00,
2013-11-01 12:03:00,42.2,36.0,31.84,NW,312,5.0,6.0,78,0.00,,,0.05,197,weatherlink.com 1.10,2013-11-01 18:03:00,
2013-11-01 12:18:00,43.3,33.0,31.83,North,351,5.0,7.0,68,0.00,,,0.05,214,weatherlink.com 1.10,2013-11-01 18:18:00,
2013-11-01 12:33:00,44.0,34.0,31.84,NW,322,7.0,8.0,68,0.00,,,0.05,313,weatherlink.com 1.10,2013-11-01 18:33:00,
2013-11-01 12:48:00,44.5,35.0,31.84,NW,308,6.0,9.0,69,0.00,,,0.05,519,weatherlink.com 1.10,2013-11-01 18:48:00,
2013-11-01 13:03:00,45.1,35.0,31.84,NW,316,8.0,12.0,68,0.00,,,0.05,698,weatherlink.com 1.10,2013-11-01 19:03:00,
2013-11-01 13:18:00,45.3,34.0,31.83,NW,325,7.0,13.0,66,0.00,,,0.05,279,weatherlink.com 1.10,2013-11-01 19:18:00,
2013-11-01 13:33:00,45.1,33.0,31.82,NW,306,4.0,12.0,63,0.00,,,0.05,295,weatherlink.com 1.10,2013-11-01 19:33:00,
2013-11-01 13:48:00,45.3,32.0,31.81,NNW,342,2.0,8.0,61,0.00,,,0.05,197,weatherlink.com 1.10,2013-11-01 19:48:00,
2013-11-01 14:03:00,44.5,32.0,31.81,NNW,348,4.0,13.0,61,0.00,,,0.05,193,weatherlink.com 1.10,2013-11-01 20:03:00,
2013-11-01 14:18:00,44.3,32.0,31.80,NNW,334,9.0,11.0,62,0.00,,,0.05,211,weatherlink.com 1.10,2013-11-01 20:18:00,
2013-11-01 14:33:00,45.3,32.0,31.80,NNW,333,5.0,11.0,61,0.00,,,0.05,668,weatherlink.com 1.10,2013-11-01 20:33:00,
2013-11-01 14:48:00,46.3,31.0,31.80,NNW,335,9.0,15.0,56,0.00,,,0.05,673,weatherlink.com 1.10,2013-11-01 20:48:00,
2013-11-01 15:03:00,47.9,31.0,31.79,NW,311,8.0,15.0,52,0.00,,,0.05,585,weatherlink.com 1.10,2013-11-01 21:03:00,
2013-11-01 15:18:00,48.3,30.0,31.78,SW,236,4.0,14.0,50,0.00,,,0.05,190,weatherlink.com 1.10,2013-11-01 21:18:00,
2013-11-01 15:33:00,47.3,28.0,31.78,West,277,6.0,14.0,47,0.00,,,0.05,244,weatherlink.com 1.10,2013-11-01 21:33:00,
2013-11-01 15:48:00,48.3,30.0,31.78,North,349,9.0,13.0,49,0.00,,,0.05,527,weatherlink.com 1.10,2013-11-01 21:48:00,
2013-11-01 16:03:00,46.7,29.0,31.78,NNW,327,11.0,19.0,50,0.00,,,0.05,213,weatherlink.com 1.10,2013-11-01 22:03:00,
2013-11-01 16:18:00,45.8,29.0,31.77,WNW,303,7.0,16.0,53,0.00,,,0.05,98,weatherlink.com 1.10,2013-11-01 22:18:00,
2013-11-01 16:33:00,47.3,28.0,31.78,NW,315,11.0,18.0,47,0.00,,,0.05,385,weatherlink.com 1.10,2013-11-01 22:33:00,
2013-11-01 16:48:00,48.4,28.0,31.77,West,281,7.0,13.0,45,0.00,,,0.05,364,weatherlink.com 1.10,2013-11-01 22:48:00,
2013-11-01 17:03:00,47.2,28.0,31.77,NNW,346,15.0,15.0,48,0.00,,,0.05,285,weatherlink.com 1.10,2013-11-01 23:03:00,
2013-11-01 17:18:00,45.8,29.0,31.78,NNW,333,9.0,17.0,52,0.00,,,0.05,264,weatherlink.com 1.10,2013-11-01 23:18:00,
2013-11-01 17:33:00,44.8,29.0,31.78,NNW,348,11.0,16.0,54,0.00,,,0.05,37,weatherlink.com 1.10,2013-11-01 23:33:00,
2013-11-01 17:48:00,43.6,29.0,31.77,NW,324,7.0,14.0,57,0.00,,,0.05,23,weatherlink.com 1.10,2013-11-01 23:48:00,
2013-11-01 18:03:00,43.0,29.0,31.77,NNW,329,3.0,13.0,59,0.00,,,0.05,12,weatherlink.com 1.10,2013-11-02 00:03:00,
2013-11-01 18:18:00,42.2,29.0,31.77,NW,323,8.0,10.0,61,0.00,,,0.05,5,weatherlink.com 1.10,2013-11-02 00:18:00,
2013-11-01 18:34:00,41.6,30.0,31.77,NNW,344,2.0,8.0,63,0.00,,,0.05,0,weatherlink.com 1.10,2013-11-02 00:34:00,
2013-11-01 18:49:00,41.2,30.0,31.76,North,5,0.0,5.0,64,0.00,,,0.05,0,weatherlink.com 1.10,2013-11-02 00:49:00,
2013-11-01 19:04:00,40.9,30.0,31.76,North,5,0.0,7.0,65,0.00,,,0.05,0,weatherlink.com 1.10,2013-11-02 01:04:00,
2013-11-01 19:19:00,41.0,30.0,31.76,North,5,3.0,6.0,65,0.00,,,0.05,0,weatherlink.com 1.10,2013-11-02 01:19:00,
2013-11-01 19:34:00,41.1,30.0,31.76,NNE,13,1.0,4.0,65,0.00,,,0.05,0,weatherlink.com 1.10,2013-11-02 01:34:00,
2013-11-01 19:49:00,41.6,30.0,31.75,NNE,12,0.0,3.0,64,0.00,,,0.05,0,weatherlink.com 1.10,2013-11-02 01:49:00,
2013-11-01 20:04:00,40.5,30.0,31.75,NNE,13,2.0,4.0,66,0.00,,,0.05,0,weatherlink.com 1.10,2013-11-02 02:04:00,
2013-11-01 20:19:00,40.1,30.0,31.75,NNE,29,3.0,4.0,67,0.00,,,0.05,0,weatherlink.com 1.10,2013-11-02 02:19:00,
2013-11-01 20:34:00,39.9,30.0,31.75,NE,38,2.0,5.0,67,0.00,,,0.05,0,weatherlink.com 1.10,2013-11-02 02:34:00,
2013-11-01 20:49:00,39.7,30.0,31.76,NE,46,2.0,6.0,68,0.00,,,0.05,0,weatherlink.com 1.10,2013-11-02 02:49:00,
2013-11-01 21:04:00,39.6,29.0,31.75,NE,41,2.0,5.0,67,0.00,,,0.05,0,weatherlink.com 1.10,2013-11-02 03:04:00,
2013-11-01 21:19:00,39.2,29.0,31.75,NE,41,2.0,7.0,68,0.00,,,0.05,0,weatherlink.com 1.10,2013-11-02 03:19:00,
2013-11-01 21:34:00,38.9,29.0,31.74,NE,43,2.0,4.0,68,0.00,,,0.05,0,weatherlink.com 1.10,2013-11-02 03:34:00,
2013-11-01 21:49:00,38.7,29.0,31.74,NE,41,3.0,4.0,68,0.00,,,0.05,0,weatherlink.com 1.10,2013-11-02 03:49:00,
2013-11-01 22:04:00,-999.0,-99.9,31.73,North,-999,-999.0,-999.0,-999,0.00,,,0.05,,weatherlink.com 1.10,2013-11-02 04:04:00,
2013-11-01 22:19:00,38.6,29.0,31.73,NE,42,0.0,2.0,68,0.00,,,0.05,0,weatherlink.com 1.10,2013-11-02 04:19:00,
2013-11-01 22:34:00,38.8,29.0,31.72,NE,42,0.0,2.0,68,0.00,,,0.05,0,weatherlink.com 1.10,2013-11-02 04:34:00,
2013-11-01 22:49:00,38.4,29.0,31.73,NE,42,0.0,3.0,69,0.00,,,0.05,0,weatherlink.com 1.10,2013-11-02 04:49:00,
2013-11-01 23:04:00,38.4,29.0,31.72,NE,42,0.0,3.0,70,0.00,,,0.05,0,weatherlink.com 1.10,2013-11-02 05:04:00,
2013-11-01 23:19:00,38.8,29.0,31.72,NE,42,1.0,3.0,69,0.00,,,0.05,0,weatherlink.com 1.10,2013-11-02 05:19:00,
2013-11-01 23:34:00,38.3,29.0,31.72,NE,42,0.0,2.0,70,0.00,,,0.05,0,weatherlink.com 1.10,2013-11-02 05:34:00,
2013-11-01 23:49:00,37.5,29.0,31.73,NE,42,0.0,3.0,71,0.00,,,0.05,0,weatherlink.com 1.10,2013-11-02 05:49:00,